STARLINK-32837 (62812 NORAD) Tracking and Keplerian Element Data

This shows tracking and keplerian element data for the satellite.

Feedback or suggestion? Click here.




ElementValue
Catalog62812
NameSTARLINK-32837
Epoch Orbit5099
Epoch Day354.0911487
Epoch Year2025
RAAN319.1875
Inclination53.1621
Eccentricity0.0001326
Argument of Perigee108.3749
Mean Anonmoly251.7396
Mean Motion15.30224106
Decay Rate0.00017404
L11 62812U 25018G 25354.09114870 .00017404 00000+0 59793-3 0 9995
L22 62812 53.1621 319.1875 0001326 108.3749 251.7396 15.30224106 50997



Live tracking and technical data element details for STARLINK-32837 (NORAD 62812). STARLINK-32837 can be tracked NOW for your location showing map with azimuth and elevation plus other details from your city location.







IsCatalogInMostPopularTable: catalog: 62812, numindb: 253
Update: records affected: 1



GetName: 62812 STARLINK-32837

Hit Count: updated at: Tue, 20 Jan 2026 18:52:58 GMT